Погода в Камынине

Россия / Тульская область     53°40′19″N   37°19′06″E
темп.,
°C
ветер,
м/с
пор.,
м/с
влажн.,
%
обл.,
%
осадки,
мм/ч
давл.,
гПа
погр.,
м
2 августа, пн
пн200:00+22ю345636 0.0 101075
03:00+20ю365921 0.0 1010100
06:00+19ю3581100 0.6 1010105
09:00+25ююз46585 0.6 1009422
12:00+30ююз6104085 0.0 10082248
15:00+32ююз8103468 0.0 10062926
18:00+30ююз49436 0.0 10041075
21:00+24юз81561100 0.3 1005603
3 августа, вт
вт300:00+19ююз41081100 5.6 1006239
03:00+17юз3893100 5.6 1007294
06:00+17з3795100 0.0 1008265
09:00+20зсз457694 0.3 1010708
12:00+23з565872 0.4 10111526
15:00+23з5649100 0.4 10111624
18:00+21зсз5758100 0.0 1012698
21:00+18зюз33740 0.0 101348
4 августа, ср
ср400:00+16зсз337796 0.0 101458
03:00+14з35745 0.0 101579
06:00+13з34780 0.0 101697
09:00+19з34570 0.0 1017494
12:00+23з34412 0.0 10172110
15:00+24зсз443651 0.0 10162462
18:00+22ссв4551100 0.0 1016421
21:00+19св1155100 0.0 101711
5 августа, чт
чт500:00+18ссз1157100 0.0 101811
03:00+16в11658 0.0 101811
06:00+16юв226683 0.0 101824
09:00+21ю3351100 0.0 1018384
12:00+17юз2383100 0.8 1018193
15:00+19ю3774100 1.3 1018541
18:00+19юв246994 0.1 1016195
21:00+17вюв2378100 0.3 101640
6 августа, пт
пт600:00+16в238297 0.4 101545
03:00+16в2283100 0.4 101537
06:00+16всв2385100 0.0 101577
09:00+16в3587100 0.2 1015146
12:00+19в357369 0.0 1015202
15:00+26вюв334567 0.0 1014679
18:00+26всв354910 0.0 1013384
21:00+20в486030 0.0 1013125